Location: *
(34.6903°N, 135.5184°E)
Time: 07:07:36
(UTC+00:00)

Cosmos 2266 Rocket - Pass Details

Date: 22 September 2019
Orbit: 935 x 1008 km, 82.9° (Epoch: 21 October)

Event Time Altitude Azimuth Distance (km) Brightness Sun altitude
Rises 19:11:43 0° 184° (S) 3,619 6.8 -20.0°
Reaches altitude 10° 19:14:13 10° 184° (S) 2,667 6.1 -19.5°
Maximum altitude 19:20:18 90° 116° (ESE) 947 3.9 -18.3°
Drops below altitude 10° 19:26:22 10° 6° (N) 2,652 6.5 -17.1°
Sets 19:28:51 0° 7° (N) 3,598 7.2 -16.6°
